Weather in Zheleznovodskiy

Russia / Stavropol Krai     44°09′18″N   42°59′28″E
temp.,
°C
wind,
m/s
gust,
m/s
humid.,
%
clouds,
%
prec.,
mm/h
press.,
hPa
HPBL,
m
4 july, mon
mon400:00+17wsw23597 0.0 101650
03:00+16wsw235769 0.0 101649
06:00+16wsw24651 0.0 101786
09:00+22wnw33490 0.0 1016675
12:00+25nnw22380 0.0 10162210
15:00+26n22356 0.0 10142371
18:00+25nnw12451 0.0 10141607
21:00+19sw11528 0.0 101512
5 july, tue
tue500:00+17wsw22630 0.0 101515
03:00+15wsw22670 0.0 101519
06:00+17wsw23660 0.0 101569
09:00+24w34460 0.0 1015531
12:00+27nnw334037 0.0 10152545
15:00+26n344796 0.0 1014796
18:00+26n124957 0.0 1014231
21:00+20ne115296 0.0 101515
6 july, wed
wed600:00+19e22473 0.0 101622
03:00+16se22530 0.0 101614
06:00+17ese23590 0.0 101662
09:00+22e57420 0.0 1016709
12:00+26e78350 0.0 10151841
15:00+27e78340 0.0 10132166
18:00+25e711430 0.0 1013586
21:00+18e37500 0.0 1015127
7 july, thu
thu700:00+17ese47590 0.0 1014187
03:00+14ese45700 0.0 1014103
06:00+14ese47760 0.0 1015274
09:00+20ese811640 0.0 1014952
12:00+25ese911507 0.0 10131487
15:00+27ese810432 0.0 10111968
18:00+25e811482 0.0 1011974
21:00+21e512531 0.0 1013497
8 july, fri
fri800:00+16e48640 0.0 1013182
03:00+14ese35720 0.0 101399
06:00+15ese35730 0.0 1013182
09:00+20e67621 0.0 1013752
12:00+26ese78502 0.0 10111309
15:00+28ese684078 0.0 10101811
18:00+27ese3747100 0.0 1009369
21:00+23ese61437100 0.0 1011541